Regional Weather Roundup
Issued by NWS

Home | Current Version | Previous Version | Text Only | Print | Product List | Glossary Off
Versions: 1 2 3 4 5 6 7 8 9 10 11 12 13 14 15 16 17 18 19 20 21 22 23 24 25 26 27 28 29 30 31 32 33 34 35 36 37 38 39 40 41 42 43 44 45 46 47 48 49 50

000
ASUS43 KMKX 190721
RWRWI

WISCONSIN REGIONAL WEATHER ROUNDUP
NATIONAL WEATHER SERVICE MILWAUKEE/SULLIVAN WI
100 AM CST MON FEB 19 2018

NOTE: "FAIR" INDICATES FEW OR NO CLOUDS BELOW 12,000 FEET WITH NO
SIGNIFICANT WEATHER AND/OR OBSTRUCTIONS TO VISIBILITY.

WIZ001-002-006>008-014>016-023>028-190800-
NORTHWEST WISCONSIN

CITY           SKY/WX    TMP DP  RH WIND       PRES   REMARKS
SUPERIOR ARPT  CLOUDY    17  11  77 N7        29.91S WCI   8
ASHLAND        LGT SNOW  20  19  96 N17       29.89R FOG     WCI   5
HAYWARD        CLOUDY    24  21  88 NE17G26   29.79F WCI  11
SIREN          FLURRIES  25  21  84 NE12G18   29.82R WCI  14
CUMBERLAND     CLOUDY    27  21  80 N9        29.76R WCI  17
RICE LAKE      CLOUDY    30  26  84 N9        29.77S WCI  21
CHETEK         FAIR      28  25  89 NW5       29.75S WCI  23
LADYSMITH      CLOUDY    33  27  78 CALM      29.77F
EAU CLAIRE     FAIR      30  25  81 CALM      29.73S
MENOMONIE      MOCLDY    32  27  83 CALM      29.74R
NEW RICHMOND   FAIR      25  21  83 N8        29.76S WCI  17
OSCEOLA        FAIR      27  22  83 N7        29.80R WCI  19
$$

WIZ003>005-009-010-017-018-190800-
NORTH CENTRAL WISCONSIN

CITY           SKY/WX    TMP DP  RH WIND       PRES   REMARKS
MANITOWISH WTR CLOUDY    30  25  83 CALM      29.77R
ARBOR VITAE    CLOUDY    33  27  79 CALM      29.77R
WOODRUFF       CLOUDY    33  27  79 CALM      29.77R
RHINELANDER    CLOUDY    32  26  78 S6        29.77R WCI  26
EAGLE RIVER    CLOUDY    31  24  76 CALM      29.77R
LAND O LAKES   CLOUDY    33  25  73 CALM      29.79R
PHILLIPS       CLOUDY    32  26  80 CALM      29.75S
TOMAHAWK       CLOUDY    31  25  78 CALM      29.78R
MEDFORD        FAIR      29  25  83 E3        29.75S
MERRILL        CLOUDY    31  26  81 CALM      29.79R
$$

WIZ029-030-035-036-043>047-190800-
CENTRAL WISCONSIN

CITY           SKY/WX    TMP DP  RH WIND       PRES   REMARKS
WAUSAU         CLOUDY    29  25  85 E5        29.76R WCI  24
MOSINEE        MOCLDY    28  27  93 SE3       29.77S
MARSHFIELD     CLOUDY    29  25  85 S5        29.74S WCI  24
STEVENS POINT  FAIR      27  27 100 CALM      29.78S
WAUPACA        FAIR      36  30  79 SE5       29.79F WCI  32
WAUTOMA        FAIR      34  29  82 SE3       29.79F
WISC RAPIDS    FAIR      26  23  88 SE3       29.77F
CAMP DOUGLAS   FAIR      35  29  77 S3        29.75S
$$

WIZ011>013-019>022-031-037>040-048>050-190800-
NORTHEAST WISCONSIN

CITY           SKY/WX    TMP DP  RH WIND       PRES   REMARKS
ANTIGO         CLOUDY    25  23  94 CALM      29.78S
SHAWANO        CLOUDY    34  28  77 CALM      29.80S
OCONTO         CLOUDY    33  28  82 CALM      29.82F
STURGEON BAY   CLOUDY    35  31  85 S12       29.84F WCI  27
GREEN BAY      CLOUDY    35  27  72 S7        29.82F WCI  29
MANITOWOC      FAIR      33  30  88 S8        29.84F WCI  26
APPLETON       CLOUDY    32  27  80 S9        29.79F WCI  24
CLINTONVILLE   CLOUDY    32  27  80 SE3       29.80S
OSHKOSH        MOCLDY    34  29  82 S7        29.80F WCI  28
$$

WIZ032>034-041-042-053>061-190800-
SOUTHWEST WISCONSIN

CITY           SKY/WX    TMP DP  RH WIND       PRES   REMARKS
LA CROSSE      CLOUDY    40  30  67 SE5       29.74R
SPARTA         CLOUDY    38  30  74 S5        29.76S WCI  34
VIROQUA        CLOUDY    36  31  83 S7        29.75R WCI  31
BOSCOBEL       CLOUDY    34  28  79 CALM      29.78S
PRAIRIE DU CHI CLOUDY    40  28  64 SE5       29.76S
PLATTEVILLE    CLOUDY    37  33  84 S8        29.78S WCI  31
$$

WIZ056-057-062-063-064-067-068-190800-
SOUTH CENTRAL WISCONSIN

CITY           SKY/WX    TMP DP  RH WIND       PRES   REMARKS
REEDSBURG      FAIR      35  30  82 CALM      29.77S
BARABOO/DELLS  MOCLDY    37  30  77 S7        29.77S WCI  31
LONE ROCK      NOT AVBL
MINERAL POINT  CLOUDY    37  34  87 S7        29.77F WCI  32
MADISON        CLOUDY    36  31  82 S7        29.81F WCI  30
MIDDLETON      CLOUDY    38  32  79 S8        29.80S WCI  32
WATERTOWN      MOCLDY    36  32  85 S6        29.81F WCI  31
MONROE         CLOUDY    36  32  87 S14       29.78S WCI  27
JANESVILLE     CLOUDY    39  32  75 S9        29.81S WCI  33
$$

WIZ051-052-058>065-066-070>072-190800-
SOUTHEAST WISCONSIN

CITY           SKY/WX    TMP DP  RH WIND       PRES   REMARKS
MILWAUKEE      CLOUDY    36  31  82 CALM      29.84F
WAUKESHA       CLOUDY    36  30  80 S7        29.83F WCI  30
MILWAUKEE/TIMM CLOUDY    34  28  80 SE5       29.85F WCI  30
RACINE         CLOUDY    36  32  85 S6        29.87F WCI  31
BURLINGTON     CLOUDY    38  31  73 S12G17    29.84S WCI  31
KENOSHA        CLOUDY    41  30  65 S13G21    29.85F
FOND DU LAC    MOCLDY    36  28  73 S10       29.81F WCI  28
SHEBOYGAN      FAIR      32  31  96 S9        29.83F WCI  24
WEST BEND      MOCLDY    32  30  93 S3        29.83F
JUNEAU         CLOUDY    36  31  82 S9        29.82F WCI  29
$$

LSZ147-162-190800-
LAKE SUPERIOR

STATION/POSITION TIME  TEMP    WIND        PRES    WAVE
                       AIR SEA DIR/SP/G            HT/PER
                 (UTC) (F)     (DEG/KT/KT) (MB)    (FT/S)
DEVILS ISLAND    0700   20      30/ 20/ 24 1014.5R
SAXON HARBOR     0630   25      50/ 18/ 20 1011.5R
$$

LMZ867-665-643>646-190800-
LAKE MICHIGAN

STATION/POSITION TIME  TEMP    WIND        PRES    WAVE
                       AIR SEA DIR/SP/G            HT/PER
                 (UTC) (F)     (DEG/KT/KT) (MB)    (FT/S)
NORTHPORT PIER   0640   35                 1010.5F
KEWAUNEE LAKESHO 0700   34     180/ 12/ 14 1009.6
SHEBOYGAN LAKESH 0700   35     180/ 17/ 19 1010.7F
PORT WASHINGTON  0630   34     190/  4/  6 1012.2F
MILWAUKEE LAKESH 0700   34     150/  9/ 10   N/A
KENOSHA   LAKESH 0700   35     170/  4/  7 1011.2
$$

TC  - TEMPERATURE IN CELSIUS
VSB - VISIBILITY IN STATUTE MILES
WCI - WIND CHILL INDEX
HX  - HEAT INDEX





USA.gov is the U.S. government's official web portal to all federal, state and local government web resources and services.